| time (UTC) | temp C | wind direction | speed KPH | gust KPH | rain 1hr cm | rain 24hr cm | rain mn cm | humidity % | barometer mb |
| 20260508044500 | 7 | 11 | 1.6 | 8.0 | 0.00 | 0.03 | 0.00 | 68 | 1013.8 |
| 20260508042958 | 7 | 156 | 3.2 | 9.7 | 0.00 | 0.03 | 0.00 | 67 | 1013.8 |
| 20260508041457 | 8 | 325 | 4.8 | 19.3 | 0.00 | 0.03 | 0.00 | 67 | 1013.6 |
| 20260508040004 | 8 | 339 | 6.4 | 17.7 | 0.00 | 0.05 | 0.03 | 67 | 1013.7 |
| 20260508034504 | 8 | 207 | 3.2 | 16.1 | 0.00 | 0.05 | 0.03 | 68 | 1013.3 |
| 20260508033005 | 8 | 323 | 3.2 | 12.9 | 0.00 | 0.05 | 0.03 | 68 | 1013.5 |
| 20260508031459 | 8 | 337 | 3.2 | 16.1 | 0.00 | 0.05 | 0.03 | 69 | 1013.5 |
| 20260508030000 | 8 | 288 | 1.6 | 11.3 | 0.00 | 0.41 | 0.03 | 69 | 1013.4 |
| 20260508024459 | 8 | 252 | 0.0 | 12.9 | 0.00 | 0.41 | 0.03 | 69 | 1013.3 |
| 20260508023007 | 8 | 311 | 3.2 | 11.3 | 0.00 | 0.41 | 0.03 | 68 | 1013.3 |
| 20260508021502 | 8 | 340 | 1.6 | 11.3 | 0.00 | 0.41 | 0.03 | 70 | 1013.0 |
| 20260508020000 | 9 | 319 | 3.2 | 11.3 | 0.00 | 0.43 | 0.03 | 70 | 1012.5 |
| 20260508014458 | 9 | 319 | 4.8 | 14.5 | 0.00 | 0.43 | 0.03 | 69 | 1012.3 |
| 20260508013000 | 9 | 311 | 4.8 | 12.9 | 0.00 | 0.43 | 0.03 | 70 | 1012.1 |
| 20260508011459 | 9 | 318 | 3.2 | 12.9 | 0.00 | 0.43 | 0.03 | 69 | 1012.0 |
| 20260508010002 | 10 | 309 | 6.4 | 12.9 | 0.00 | 0.43 | 0.03 | 68 | 1011.9 |
| 20260508004458 | 10 | 200 | 4.8 | 14.5 | 0.00 | 0.43 | 0.03 | 67 | 1011.9 |
| 20260508003000 | 10 | 207 | 3.2 | 12.9 | 0.00 | 0.43 | 0.03 | 68 | 1011.8 |
| 20260507234500 | 11 | 296 | 1.6 | 12.9 | 0.00 | 0.43 | 0.03 | 66 | 1011.5 |
| 20260507233003 | 11 | 217 | 3.2 | 12.9 | 0.00 | 0.43 | 0.03 | 67 | 1011.3 |
| 20260507231500 | 11 | 314 | 6.4 | 16.1 | 0.00 | 0.43 | 0.03 | 64 | 1011.0 |
| 20260507224459 | 13 | 346 | 1.6 | 8.0 | 0.00 | 0.43 | 0.03 | 68 | 1010.6 |
| 20260507222959 | 13 | 333 | 1.6 | 14.5 | 0.00 | 0.43 | 0.03 | 66 | 1010.5 |
| 20260507221458 | 14 | 318 | 1.6 | 9.7 | 0.00 | 0.43 | 0.03 | 67 | 1010.4 |
| 20260507220003 | 14 | 210 | 1.6 | 9.7 | 0.00 | 0.43 | 0.03 | 66 | 1010.3 |
| 20260507214458 | 13 | 234 | 1.6 | 12.9 | 0.00 | 0.43 | 0.03 | 71 | 1010.1 |
| 20260507213001 | 12 | 58 | 3.2 | 9.7 | 0.00 | 0.43 | 0.03 | 78 | 1010.2 |
| 20260507211501 | 12 | 158 | 1.6 | 9.7 | 0.00 | 0.43 | 0.03 | 78 | 1010.2 |
| 20260507210005 | 11 | 248 | 0.0 | 11.3 | 0.00 | 0.43 | 0.03 | 79 | 1009.9 |
| 20260507204501 | 12 | 312 | 1.6 | 9.7 | 0.00 | 0.43 | 0.03 | 80 | 1009.7 |
| 20260507203004 | 11 | 28 | 0.0 | 6.4 | 0.00 | 0.43 | 0.03 | 85 | 1009.8 |
| 20260507201500 | 11 | 339 | 1.6 | 4.8 | 0.00 | 0.43 | 0.03 | 83 | 1009.7 |
| 20260507200000 | 11 | 325 | 0.0 | 3.2 | 0.00 | 0.43 | 0.03 | 85 | 1010.0 |
| 20260507194501 | 10 | 310 | 0.0 | 4.8 | 0.00 | 0.43 | 0.03 | 87 | 1010.4 |
| 20260507193004 | 10 | 319 | 1.6 | 4.8 | 0.00 | 0.43 | 0.03 | 88 | 1010.6 |
| 20260507191501 | 10 | 347 | 0.0 | 8.0 | 0.00 | 0.43 | 0.03 | 87 | 1010.7 |
| 20260507190010 | 10 | 151 | 0.0 | 6.4 | 0.00 | 0.43 | 0.03 | 89 | 1010.9 |
| 20260507184502 | 10 | 317 | 3.2 | 11.3 | 0.00 | 0.43 | 0.03 | 89 | 1011.1 |
| 20260507183001 | 10 | 314 | 1.6 | 8.0 | 0.00 | 0.43 | 0.03 | 90 | 1011.0 |
| 20260507181502 | 9 | 240 | 0.0 | 4.8 | 0.00 | 0.43 | 0.03 | 91 | 1011.1 |
| 20260507180008 | 8 | 356 | 1.6 | 9.7 | 0.00 | 0.43 | 0.03 | 92 | 1011.3 |
| 20260507174502 | 8 | 326 | 0.0 | 6.4 | 0.00 | 0.46 | 0.03 | 93 | 1011.1 |
| 20260507173005 | 8 | 304 | 0.0 | 4.8 | 0.00 | 0.46 | 0.03 | 94 | 1011.1 |
| 20260507170006 | 9 | 324 | 0.0 | 1.6 | 0.03 | 0.46 | 0.03 | 93 | 1011.6 |
| 20260507164503 | 9 | 96 | 0.0 | 6.4 | 0.03 | 0.53 | 0.03 | 93 | 1011.3 |
| 20260507163008 | 9 | 342 | 0.0 | 3.2 | 0.03 | 0.53 | 0.03 | 93 | 1011.3 |
| 20260507161501 | 9 | 25 | 0.0 | 8.0 | 0.00 | 0.51 | 0.00 | 93 | 1011.3 |
| 20260507160009 | 9 | 138 | 1.6 | 9.7 | 0.00 | 0.51 | 0.00 | 94 | 1011.4 |
| 20260507154504 | 9 | 329 | 4.8 | 9.7 | 0.00 | 0.51 | 0.00 | 94 | 1011.6 |
| 20260507151501 | 10 | 328 | 1.6 | 6.4 | 0.00 | 0.51 | 0.00 | 94 | 1011.8 |
| 20260507150000 | 10 | 317 | 1.6 | 6.4 | 0.00 | 0.51 | 0.00 | 94 | 1011.7 |
| 20260507144501 | 10 | 329 | 3.2 | 8.0 | 0.00 | 0.51 | 0.00 | 94 | 1011.5 |
| 20260507141500 | 10 | 348 | 1.6 | 9.7 | 0.00 | 0.51 | 0.00 | 94 | 1011.5 |
| 20260507140002 | 10 | 314 | 0.0 | 9.7 | 0.00 | 0.64 | 0.00 | 94 | 1011.5 |
| 20260507134500 | 10 | 311 | 0.0 | 6.4 | 0.00 | 0.64 | 0.00 | 94 | 1011.6 |
| 20260507133003 | 10 | 345 | 0.0 | 8.0 | 0.00 | 0.64 | 0.00 | 94 | 1011.8 |
| 20260507131459 | 11 | 314 | 3.2 | 4.8 | 0.00 | 0.64 | 0.00 | 94 | 1011.8 |
| 20260507130003 | 11 | 11 | 0.0 | 4.8 | 0.00 | 0.64 | 0.00 | 94 | 1012.1 |
| 20260507124459 | 11 | 318 | 0.0 | 4.8 | 0.00 | 0.66 | 0.00 | 95 | 1011.8 |
| 20260507123003 | 10 | 323 | 1.6 | 4.8 | 0.00 | 0.66 | 0.00 | 95 | 1011.9 |
| 20260507121500 | 11 | 338 | 1.6 | 6.4 | 0.00 | 0.66 | 0.00 | 95 | 1011.8 |
| 20260507120005 | 11 | 329 | 1.6 | 4.8 | 0.00 | 0.66 | 0.00 | 94 | 1011.9 |
| 20260507113004 | 11 | 297 | 0.0 | 1.6 | 0.00 | 0.66 | 0.00 | 93 | 1011.7 |
| 20260507111459 | 11 | 132 | 0.0 | 1.6 | 0.00 | 0.66 | 0.00 | 93 | 1011.7 |
| 20260507110002 | 11 | 26 | 0.0 | 1.6 | 0.00 | 0.66 | 0.00 | 93 | 1011.4 |
| 20260507101501 | 11 | 210 | 1.6 | 12.9 | 0.00 | 0.66 | 0.00 | 92 | 1011.2 |
| 20260507100008 | 11 | 305 | 0.0 | 8.0 | 0.00 | 0.66 | 0.00 | 92 | 1011.3 |
| 20260507094500 | 12 | 223 | 0.0 | 4.8 | 0.00 | 0.66 | 0.00 | 91 | 1011.5 |
| 20260507093000 | 12 | 23 | 0.0 | 0.0 | 0.00 | 0.66 | 0.00 | 91 | 1011.2 |
| 20260507091500 | 12 | 25 | 0.0 | 0.0 | 0.00 | 0.66 | 0.00 | 91 | 1011.5 |
| 20260507084501 | 12 | 235 | 0.0 | 0.0 | 0.00 | 0.66 | 0.00 | 92 | 1011.2 |
| 20260507081502 | 12 | 233 | 0.0 | 0.0 | 0.00 | 0.66 | 0.00 | 91 | 1011.4 |
| 20260507080000 | 12 | 177 | 0.0 | 0.0 | 0.00 | 0.66 | 0.00 | 91 | 1011.6 |
| 20260507074459 | 12 | 209 | 0.0 | 0.0 | 0.00 | 0.66 | 0.00 | 91 | 1011.5 |
| 20260507073001 | 12 | 230 | 0.0 | 1.6 | 0.00 | 0.66 | 0.00 | 91 | 1011.6 |
| 20260507071500 | 13 | 52 | 0.0 | 9.7 | 0.00 | 0.66 | 0.00 | 91 | 1011.4 |
| 20260507065959 | 13 | 336 | 1.6 | 8.0 | 0.00 | 0.66 | 0.00 | 92 | 1011.3 |
| 20260507064500 | 13 | 259 | 0.0 | 1.6 | 0.00 | 0.66 | 0.00 | 90 | 1011.4 |
| 20260507063000 | 13 | 207 | 0.0 | 3.2 | 0.00 | 0.66 | 0.00 | 90 | 1011.8 |
| 20260507061459 | 13 | 114 | 0.0 | 1.6 | 0.00 | 0.66 | 0.00 | 89 | 1011.4 |
| 20260507060002 | 13 | 30 | 0.0 | 4.8 | 0.00 | 0.66 | 0.00 | 89 | 1011.4 |
| 20260507054459 | 14 | 78 | 1.6 | 4.8 | 0.00 | 0.66 | 0.00 | 88 | 1011.6 |
| 20260507053000 | 14 | 65 | 1.6 | 6.4 | 0.00 | 0.66 | 0.00 | 89 | 1011.7 |
| 20260507051500 | 14 | 80 | 1.6 | 6.4 | 0.00 | 0.66 | 0.00 | 91 | 1011.8 |
| 20260507045959 | 14 | 191 | 3.2 | 8.0 | 0.00 | 0.66 | 0.00 | 92 | 1011.8 |